DMSP 5D-2 F13 DEB, 40681

Orbit data source: Space-Track

DMSP 5D-2 F13 DEB, 40681 is space debris in SSO originally from a launch on Fri, 24 Mar 1995 UTC launched from the Air Force Western Test Range (AFWTR). Debris objects in space refer to the collection of defunct objects orbiting the Earth. Examples of debris include non-operational satellites, rocket bodies, and fragments generated from explosions, collisions, or faulty payload assembly.

Loading next visibility...
Identifier
40681, 1995-015FV
Orbit
SSO
Country
Flag of USUS
Related business
Manufacturer
Unknown
Mission
Spacecraft
Bus & Motor
Unknown
Mass
Unknown
Launch date (UTC)
1995-03-24 (31 years ago)
Launch vehicle
Unknown
Launch site
Air Force Western Test Range (AFWTR)
Object type
Payload
Rocket body
Debris
Shape & HBR
Unknown shape, 0.1 m
Radar Cross Section
Medium (>0.1 m² and <1 m²)

Expand to show TLE details & history
Last TLE update: 1 day ago

TLE from 1 day ago
0 DMSP 5D-2 F13 DEB
1 40681U 95015FV  26206.92879006  .00003675  00000-0  12365-2 0  9996
2 40681  98.6976 243.4697 0002483 317.0134  43.0858 14.37724062586280
Epoch: 2026-07-25T22:17Z
TLE epoch observation values (Epoch: 2026-07-25T22:17:27.461Z)
Latitude
-0.00001°
Longitude
-34.52875°
Altitude
767.672 km
Speed
7.471 km/s
True Right ascension
16h 13m 52s
True Declination
0° 00' 00"
Sunlit
Object was in daylight at epoch
Visualization orbit readout
Latitude
Unknown
Longitude
Unknown
Altitude
Unknown
Speed
Unknown
Apparent Right ascension
Unknown
Apparent Declination
Unknown
Sunlit
N/A
Visualization observer readout
Local Sidereal Time
19:51:17
Azimuth
Unknown
Elevation
Unknown
Doppler factor
Unknown
Orbital elements
Apogee altitude
764.936 km
Perigee altitude
761.389 km
Semi-major axis
7,141.299 km
Eccentricity
0.00025
Inclination
98.6976°
RAAN
243.4697°
Arg. of periapsis
317.0134°
True anomaly
43.10524°
Mean anomaly
43.0858°
Eccentric anomaly
43.09552°
Mean motion
3.59648 °/min
Orbital period
100.1 mins
BSTAR
0.0012365
Loading maneuver chart data...
Computing Atmospheric mass density...

Documentation

Showing up to 5 results
|